Oakdale, LA

5:43 AM CDT on April 24, 2017 (GMT -0500)
Oakdale

Weather History for KACP - April, 2012

Change the Weather History Date:

Monday, April 30, 2012

  Actual Average (KPOE) Record (KPOE)
Temperature  
Mean Temperature 78 °F -  
Max Temperature 87 °F 79 °F 87 °F (2002)
Min Temperature 68 °F 59 °F 51 °F (1998)
Cooling Degree Days 12    
Growing Degree Days 28 (Base 50)    
Moisture  
Dew Point 68 °F    
Average Humidity 77    
Maximum Humidity 100    
Minimum Humidity 35    
Precipitation  
Precipitation 0.00 in - - ()
Sea Level Pressure  
Sea Level Pressure 30.05 in    
Wind  
Wind Speed 3 mph (SSE)    
Max Wind Speed 10 mph    
Max Gust Speed -    
Visibility 9 miles    
Events      
Averages and records for this station are not official NWS values.
T = Trace of Precipitation, MM = Missing Value Source: NWS Daily Summary

Daily Weather History Graph

Daily Weather History Graph

Search for Another Location

Airport or City:

Trip Planner

Search our weather history database for the weather conditions in past years. The results will help you decide how hot, cold, wet, or windy it might be!

Date:

Astronomy

Apr. 30, 2012 Rise Set
Actual Time 6:27 AM CDT 7:49 PM CDT
Civil Twilight 6:01 AM CDT 8:14 PM CDT
Nautical Twilight 5:31 AM CDT 8:45 PM CDT
Astronomical Twilight 4:59 AM CDT 9:16 PM CDT
Moon 2:10 PM CDT (4/30) 2:26 AM CDT (4/30)
Length of Visible Light 14h 12m
Length of Day
13h 21m
Waxing Gibbous, 64% of the Moon is Illuminated
Apr 30
Waxing Gibbous
May 5
Full
May 12
Last Quarter
May 20
New
May 28
First Quarter

Hourly Weather History & Observations

Time (CDT) Temp. Heat Index Dew Point Humidity Pressure Visibility Wind Dir Wind Speed Gust Speed Precip Events Conditions
12:15 AM 69.8 °F - 69.8 °F 100% 30.06 in 4.0 mi Calm Calm - N/A   Overcast
12:35 AM 69.8 °F - 69.8 °F 100% 30.06 in 7.0 mi Calm Calm - N/A   Overcast
12:55 AM 69.8 °F - 69.8 °F 100% 30.05 in 4.0 mi Calm Calm - N/A   Overcast
1:15 AM 71.6 °F - 71.6 °F 100% 30.05 in 5.0 mi Calm Calm - N/A   Overcast
1:35 AM 71.6 °F - 71.6 °F 100% 30.04 in 7.0 mi SSE 3.5 mph - N/A   Overcast
1:55 AM 71.6 °F - 71.6 °F 100% 30.04 in 7.0 mi SSE 3.5 mph - N/A   Overcast
2:15 AM 73.4 °F - 73.4 °F 100% 30.03 in 7.0 mi Calm Calm - N/A   Overcast
2:35 AM 73.4 °F - 73.4 °F 100% 30.02 in 7.0 mi South 3.5 mph - N/A   Overcast
2:55 AM 73.4 °F - 73.4 °F 100% 30.02 in 10.0 mi SSE 3.5 mph - N/A   Overcast
3:15 AM 73.4 °F - 73.4 °F 100% 30.02 in 10.0 mi Calm Calm - N/A   Overcast
3:35 AM 73.4 °F - 73.4 °F 100% 30.02 in 10.0 mi Calm Calm - N/A   Overcast
3:55 AM 73.4 °F - 73.4 °F 100% 30.02 in 10.0 mi Calm Calm - N/A   Overcast
4:15 AM 73.4 °F - 73.4 °F 100% 30.02 in 10.0 mi SSE 3.5 mph - N/A   Overcast
4:35 AM 73.4 °F - 73.4 °F 100% 30.03 in 10.0 mi SSE 3.5 mph - N/A   Overcast
4:55 AM 73.4 °F - 73.4 °F 100% 30.03 in 10.0 mi SSE 3.5 mph - N/A   Overcast
5:15 AM 71.6 °F - 71.6 °F 100% 30.03 in 7.0 mi Calm Calm - N/A   Overcast
5:35 AM 71.6 °F - 71.6 °F 100% 30.04 in 5.0 mi Calm Calm - N/A   Overcast
5:55 AM 71.6 °F - 71.6 °F 100% 30.04 in 5.0 mi SE 3.5 mph - N/A   Overcast
6:15 AM 71.6 °F - 71.6 °F 100% 30.05 in 4.0 mi Calm Calm - N/A   Overcast
6:55 AM 71.6 °F - 71.6 °F 100% 30.06 in 3.0 mi Calm Calm - N/A   Overcast
7:15 AM 71.6 °F - 71.6 °F 100% 30.07 in 3.0 mi Calm Calm - N/A   Overcast
7:35 AM 71.6 °F - 71.6 °F 100% 30.08 in 4.0 mi Calm Calm - N/A   Overcast
7:55 AM 73.4 °F - 73.4 °F 100% 30.08 in 5.0 mi ESE 3.5 mph - N/A   Overcast
8:15 AM 75.2 °F - 75.2 °F 100% 30.09 in 10.0 mi ESE 5.8 mph - N/A   Overcast
8:35 AM 75.2 °F - 75.2 °F 100% 30.10 in 10.0 mi SE 5.8 mph - N/A   Overcast
8:55 AM 75.2 °F - 75.2 °F 100% 30.10 in 10.0 mi SE 3.5 mph - N/A   Overcast
9:15 AM 78.8 °F - 69.8 °F 74% 30.10 in 10.0 mi SE 6.9 mph - N/A   Overcast
9:35 AM 80.6 °F 82.7 °F 66.2 °F 61% 30.11 in 10.0 mi SE 5.8 mph - N/A   Mostly Cloudy
9:55 AM 80.6 °F 82.7 °F 66.2 °F 61% 30.11 in 10.0 mi South 8.1 mph - N/A   Overcast
10:15 AM 78.8 °F - 66.2 °F 65% 30.12 in 10.0 mi SSE 3.5 mph - N/A   Overcast
10:35 AM 78.8 °F - 64.4 °F 61% 30.12 in 10.0 mi SSE 6.9 mph - N/A   Scattered Clouds
10:55 AM 78.8 °F - 66.2 °F 65% 30.12 in 10.0 mi South 4.6 mph - N/A   Scattered Clouds
11:15 AM 82.4 °F 83.9 °F 64.4 °F 54% 30.12 in 10.0 mi SE 8.1 mph - N/A   Mostly Cloudy
11:35 AM 84.2 °F 85.6 °F 64.4 °F 51% 30.11 in 10.0 mi SSW 8.1 mph - N/A   Mostly Cloudy
11:55 AM 82.4 °F 83.9 °F 64.4 °F 54% 30.11 in 10.0 mi SE 3.5 mph - N/A   Mostly Cloudy
12:15 PM 84.2 °F 85.0 °F 62.6 °F 48% 30.11 in 10.0 mi SSE 5.8 mph - N/A   Scattered Clouds
12:35 PM 84.2 °F 85.0 °F 62.6 °F 48% 30.10 in 10.0 mi Calm Calm - N/A   Scattered Clouds
12:55 PM 84.2 °F 85.0 °F 62.6 °F 48% 30.10 in 10.0 mi SSE 4.6 mph - N/A   Scattered Clouds
1:15 PM 84.2 °F 85.0 °F 62.6 °F 48% 30.09 in 10.0 mi South 3.5 mph - N/A   Scattered Clouds
1:35 PM 86.0 °F 86.6 °F 62.6 °F 45% 30.08 in 10.0 mi ESE 5.8 mph - N/A   Mostly Cloudy
1:55 PM 86.0 °F 86.6 °F 62.6 °F 45% 30.06 in 10.0 mi SSW 5.8 mph - N/A   Scattered Clouds
2:15 PM 86.0 °F 86.6 °F 62.6 °F 45% 30.06 in 10.0 mi South 5.8 mph - N/A   Scattered Clouds
2:55 PM 87.8 °F 87.6 °F 60.8 °F 40% 30.05 in 10.0 mi South 5.8 mph - N/A   Mostly Cloudy
3:15 PM 87.8 °F 87.6 °F 60.8 °F 40% 30.04 in 10.0 mi South 10.4 mph - N/A   Mostly Cloudy
3:55 PM 87.8 °F 87.6 °F 60.8 °F 40% 30.03 in 10.0 mi South 6.9 mph - N/A   Scattered Clouds
4:15 PM 87.8 °F 87.1 °F 59.0 °F 38% 30.02 in 10.0 mi South 6.9 mph - N/A   Scattered Clouds
4:35 PM 87.8 °F 86.5 °F 57.2 °F 35% 30.01 in 10.0 mi South 6.9 mph - N/A   Scattered Clouds
4:55 PM 87.8 °F 87.6 °F 60.8 °F 40% 30.01 in 10.0 mi SE 8.1 mph - N/A   Scattered Clouds
5:15 PM 86.0 °F 85.4 °F 59.0 °F 40% 30.01 in 10.0 mi South 6.9 mph - N/A   Scattered Clouds
5:35 PM 86.0 °F 85.4 °F 59.0 °F 40% 30.01 in 10.0 mi South 8.1 mph - N/A   Clear
5:55 PM 86.0 °F 86.1 °F 60.8 °F 43% 30.00 in 10.0 mi South 4.6 mph - N/A   Clear
6:15 PM 84.2 °F 85.0 °F 62.6 °F 48% 30.00 in 10.0 mi South 8.1 mph - N/A   Scattered Clouds
6:35 PM 82.4 °F 83.9 °F 64.4 °F 54% 30.00 in 10.0 mi South 5.8 mph - N/A   Scattered Clouds
7:15 PM 78.8 °F - 64.4 °F 61% 30.00 in 10.0 mi South 3.5 mph - N/A   Clear
7:35 PM 77.0 °F - 66.2 °F 69% 30.00 in 10.0 mi South 3.5 mph - N/A   Clear
7:55 PM 77.0 °F - 64.4 °F 65% 30.00 in 10.0 mi South 3.5 mph - N/A   Clear
8:15 PM 75.2 °F - 66.2 °F 73% 30.00 in 10.0 mi South 3.5 mph - N/A   Scattered Clouds
8:35 PM 73.4 °F - 66.2 °F 78% 30.00 in 10.0 mi Calm Calm - N/A   Mostly Cloudy
8:55 PM 71.6 °F - 71.6 °F 100% 30.00 in 10.0 mi Calm Calm - N/A   Mostly Cloudy
9:15 PM 71.6 °F - 71.6 °F 100% 30.00 in 10.0 mi Calm Calm - N/A   Mostly Cloudy
9:35 PM 71.6 °F - 71.6 °F 100% 30.01 in 10.0 mi Calm Calm - N/A   Scattered Clouds
10:15 PM 69.8 °F - 69.8 °F 100% 30.01 in 10.0 mi Calm Calm - N/A   Clear
10:35 PM 69.8 °F - 69.8 °F 100% 30.01 in 10.0 mi Calm Calm - N/A   Clear
10:55 PM 68.0 °F - 68.0 °F 100% 30.02 in 7.0 mi Calm Calm - N/A   Clear
11:15 PM 69.8 °F - 69.8 °F 100% 30.01 in 10.0 mi Calm Calm - N/A   Clear
11:35 PM 71.6 °F - 71.6 °F 100% 30.01 in 10.0 mi SSE 4.6 mph - N/A   Clear